DKH1376 RKPC-ZSPD

Flight info

Callsign DKH1376
Flight time N/A
Altitude 38000
Route PANSI2E PANSI Y711 PONIK A593 LAMEN/K0770F280 A593 AKARA/K0767S0840 A593 PUD
Aircraft A20N/M-SDE2E3FGHIRWXY/LB1

Departure

Time 2026-05-06 01:25
Airport Jeju International Airport (RKPC)

Arrival

Time N/A
Airport Shanghai Pudong International Airport (ZSPD)
Time Latitude Longitude Altitude Speed Heading
2026-05-06 01:02 33.50561 126.48918 86 ft 0 kts 148°
2026-05-06 01:17 33.50570 126.48913 86 ft 2 kts 148°
2026-05-06 01:17 33.50582 126.48903 85 ft 2 kts 148°
2026-05-06 01:17 33.50595 126.48894 85 ft 2 kts 148°
2026-05-06 01:18 33.50608 126.48884 84 ft 2 kts 148°
2026-05-06 01:18 33.50617 126.48878 84 ft 0 kts 148°
2026-05-06 01:18 33.50628 126.48867 83 ft 2 kts 125°
2026-05-06 01:18 33.50634 126.48851 83 ft 2 kts 104°
2026-05-06 01:19 33.50635 126.48834 83 ft 2 kts 82°
2026-05-06 01:19 33.50632 126.48817 83 ft 0 kts 62°
2026-05-06 01:19 33.50628 126.48811 83 ft 1 kts 58°
2026-05-06 01:19 33.50628 126.48810 83 ft 0 kts 58°
2026-05-06 01:21 33.50632 126.48817 83 ft 6 kts 58°
2026-05-06 01:21 33.50671 126.48894 83 ft 11 kts 53°
2026-05-06 01:21 33.50752 126.48877 79 ft 16 kts 329°
2026-05-06 01:21 33.50863 126.48927 77 ft 22 kts 59°
2026-05-06 01:22 33.50954 126.49103 78 ft 26 kts 58°
2026-05-06 01:22 33.51051 126.49295 80 ft 26 kts 59°
2026-05-06 01:22 33.51149 126.49484 82 ft 27 kts 59°
2026-05-06 01:22 33.51253 126.49692 79 ft 30 kts 58°
2026-05-06 01:23 33.51352 126.49830 74 ft 14 kts
2026-05-06 01:23 33.51409 126.49805 71 ft 8 kts 328°
2026-05-06 01:23 33.51459 126.49731 70 ft 13 kts 271°
2026-05-06 01:23 33.51440 126.49674 71 ft 0 kts 236°
2026-05-06 01:24 33.51413 126.49622 73 ft 29 kts 238°
2026-05-06 01:24 33.51161 126.49129 75 ft 106 kts 238°
2026-05-06 01:24 33.50660 126.48154 96 ft 162 kts 241°
2026-05-06 01:24 33.50086 126.46985 639 ft 166 kts 239°
2026-05-06 01:25 33.49481 126.45817 1306 ft 164 kts 237°
2026-05-06 01:25 33.48879 126.44663 1901 ft 166 kts 236°
2026-05-06 01:25 33.48236 126.43441 2333 ft 182 kts 236°
2026-05-06 01:25 33.47533 126.42100 2758 ft 200 kts 237°
2026-05-06 01:26 33.46763 126.40618 3204 ft 219 kts 238°
2026-05-06 01:26 33.45932 126.39008 3667 ft 239 kts 238°
2026-05-06 01:26 33.45035 126.37268 4192 ft 257 kts 238°
2026-05-06 01:26 33.44069 126.35393 4866 ft 270 kts 238°
2026-05-06 01:27 33.42954 126.33594 5730 ft 275 kts 221°
2026-05-06 01:27 33.41299 126.32472 6623 ft 278 kts 197°
2026-05-06 01:27 33.39428 126.31917 7493 ft 281 kts 193°
2026-05-06 01:27 33.37513 126.31396 8363 ft 285 kts 193°
2026-05-06 01:28 33.35586 126.30866 9205 ft 288 kts 194°
2026-05-06 01:28 33.33639 126.30318 10033 ft 292 kts 194°
2026-05-06 01:28 33.31673 126.29758 10838 ft 295 kts 195°
2026-05-06 01:28 33.29662 126.29179 11616 ft 299 kts 195°
2026-05-06 01:29 33.27640 126.28593 12368 ft 303 kts 195°
2026-05-06 01:29 33.25576 126.27996 13116 ft 307 kts 195°
2026-05-06 01:29 33.23512 126.27397 13838 ft 310 kts 195°
2026-05-06 01:29 33.21404 126.26788 14544 ft 315 kts 195°
2026-05-06 01:30 33.19257 126.26164 15218 ft 319 kts 195°
2026-05-06 01:30 33.17074 126.25532 15829 ft 326 kts 195°
2026-05-06 01:30 33.14831 126.24882 16147 ft 342 kts 195°
2026-05-06 01:30 33.12455 126.24191 16435 ft 359 kts 195°
2026-05-06 01:31 33.09973 126.23473 16756 ft 373 kts 195°
2026-05-06 01:31 33.07448 126.22746 17298 ft 379 kts 195°
2026-05-06 01:31 33.04865 126.22003 17920 ft 383 kts 195°
2026-05-06 01:31 33.02266 126.21252 18518 ft 386 kts 196°
2026-05-06 01:32 32.99667 126.20381 19100 ft 389 kts 200°
2026-05-06 01:32 32.97107 126.19330 19673 ft 392 kts 202°
2026-05-06 01:32 32.94529 126.18221 20239 ft 396 kts 202°
2026-05-06 01:32 32.91946 126.17107 20791 ft 400 kts 202°
2026-05-06 01:33 32.89318 126.15977 21320 ft 404 kts 202°
2026-05-06 01:33 32.86653 126.14831 21829 ft 409 kts 202°
2026-05-06 01:33 32.83970 126.13681 22347 ft 412 kts 202°
2026-05-06 01:33 32.81259 126.12517 22876 ft 416 kts 202°
2026-05-06 01:34 32.78521 126.11346 23387 ft 419 kts 202°
2026-05-06 01:34 32.75778 126.10173 23893 ft 422 kts 202°
2026-05-06 01:34 32.73002 126.08986 24394 ft 425 kts 202°
2026-05-06 01:34 32.70222 126.07798 24913 ft 427 kts 202°
2026-05-06 01:35 32.67423 126.06603 25397 ft 430 kts 202°
2026-05-06 01:35 32.64597 126.05396 25862 ft 433 kts 202°
2026-05-06 01:35 32.61745 126.04177 26314 ft 436 kts 202°
2026-05-06 01:35 32.58901 126.02966 26742 ft 439 kts 202°
2026-05-06 01:36 32.56033 126.01743 27164 ft 441 kts 202°
2026-05-06 01:36 32.53125 126.00507 27593 ft 444 kts 202°
2026-05-06 01:36 32.50227 125.99276 27997 ft 446 kts 202°
2026-05-06 01:36 32.47287 125.98025 28360 ft 449 kts 202°
2026-05-06 01:37 32.44341 125.96780 28753 ft 450 kts 202°
2026-05-06 01:37 32.41377 125.95528 29132 ft 452 kts 203°
2026-05-06 01:37 32.38452 125.94292 29631 ft 449 kts 203°
2026-05-06 01:37 32.35501 125.93046 30138 ft 447 kts 202°
2026-05-06 01:38 32.32586 125.91816 30581 ft 445 kts 203°
2026-05-06 01:38 32.29698 125.90595 30977 ft 444 kts 202°
2026-05-06 01:38 32.26785 125.89362 31339 ft 444 kts 203°
2026-05-06 01:38 32.23879 125.88134 31706 ft 443 kts 203°
2026-05-06 01:39 32.20968 125.86906 32079 ft 442 kts 203°
2026-05-06 01:39 32.18073 125.85684 32441 ft 442 kts 203°
2026-05-06 01:39 32.15211 125.84476 32753 ft 442 kts 203°
2026-05-06 01:39 32.12322 125.83260 33100 ft 441 kts 203°
2026-05-06 01:40 32.09449 125.82024 33435 ft 439 kts 206°
2026-05-06 01:40 32.06725 125.80409 33761 ft 434 kts 215°
2026-05-06 01:40 32.04295 125.78353 34109 ft 428 kts 224°
2026-05-06 01:40 32.02191 125.75932 34537 ft 420 kts 232°
2026-05-06 01:41 32.00450 125.73233 34930 ft 414 kts 240°
2026-05-06 01:41 31.99050 125.70260 35207 ft 411 kts 249°
2026-05-06 01:41 31.98052 125.67165 35402 ft 410 kts 256°
2026-05-06 01:41 31.97303 125.63917 35641 ft 409 kts 257°
2026-05-06 01:42 31.96598 125.60689 35884 ft 409 kts 258°
2026-05-06 01:42 31.95888 125.57431 36070 ft 411 kts 258°
2026-05-06 01:42 31.94450 125.50909 36080 ft 415 kts 258°
2026-05-06 01:43 31.92984 125.44331 36083 ft 417 kts 258°
2026-05-06 01:43 31.91515 125.37774 36087 ft 418 kts 258°
2026-05-06 01:44 31.90031 125.31162 36088 ft 420 kts 257°
2026-05-06 01:44 31.88535 125.24519 36090 ft 422 kts 258°
2026-05-06 01:45 31.87032 125.17863 36090 ft 422 kts 258°
2026-05-06 01:45 31.85522 125.11185 36095 ft 423 kts 258°
2026-05-06 01:46 31.84008 125.04514 36080 ft 423 kts 258°
2026-05-06 01:46 31.82503 124.97864 36091 ft 426 kts 259°
2026-05-06 01:47 31.81046 124.91142 36085 ft 427 kts 259°
2026-05-06 01:47 31.79589 124.84390 36082 ft 428 kts 259°
2026-05-06 01:48 31.78118 124.77602 36087 ft 428 kts 259°
2026-05-06 01:48 31.76646 124.70850 36077 ft 428 kts 259°
2026-05-06 01:49 31.75172 124.64091 36082 ft 428 kts 260°